Weather reports worldwide

Advertisment
Cagliari/Elmas, Italy (16560): temperature & dewpoint: 13.06.2019 00:00:00 - 19.06.2019 00:00:00 (CEST)Cagliari/Elmas, Italy (16560): wind speed: 13.06.2019 00:00:00 - 19.06.2019 00:00:00 (CEST)Cagliari/Elmas, Italy (16560): wind direction: 13.06.2019 00:00:00 - 19.06.2019 00:00:00 (CEST)Cagliari/Elmas, Italy (16560): reduced air pressure: 13.06.2019 00:00:00 - 19.06.2019 00:00:00 (CEST)Cagliari/Elmas, Italy (16560): visibility: 13.06.2019 00:00:00 - 19.06.2019 00:00:00 (CEST)Cagliari/Elmas, Italy (16560): precipitation: 13.06.2019 00:00:00 - 19.06.2019 00:00:00 (CEST)
Date & Time tt [°C] td [°C] ff [km/h] ff [kn] dd ppp [hPa] vv [km] rr [mm]
19.06.2019 00:00:00 - - - - - - - -
18.06.2019 23:00:00 21,1 15,7 2 1 - 1015,5 10 0,0
18.06.2019 22:00:00 22,0 15,0 2 1 - - 10 -
18.06.2019 21:00:00 23,0 16,0 8 4 ESE - 10 -
18.06.2019 20:00:00 24,2 16,3 11 6 ESE 1014,7 30 -
18.06.2019 19:00:00 24,0 18,0 16 9 SE - 10 -
18.06.2019 18:00:00 - - - - - - - -
18.06.2019 17:00:00 25,5 16,0 16 9 SE 1014,8 10 0,0
18.06.2019 16:00:00 26,0 15,0 21 11 SE - 10 -
18.06.2019 15:00:00 26,0 16,0 16 9 SE - 10 -
18.06.2019 14:00:00 26,7 13,9 15 8 SSE 1015,7 10 -
18.06.2019 13:00:00 26,0 15,0 16 9 SSE - 10 -
18.06.2019 12:00:00 27,0 15,0 9 5 SSW - 10 -
18.06.2019 11:00:00 26,4 15,8 9 5 W 1015,5 10 0,0
18.06.2019 10:00:00 23,0 16,0 11 6 N - 10 -
18.06.2019 09:00:00 21,0 17,0 11 6 NNW - 10 -
18.06.2019 08:00:00 18,0 16,3 13 7 NNW 1015,3 10 -
18.06.2019 07:00:00 17,0 16,0 15 8 NW - 10 -
18.06.2019 06:00:00 16,0 15,0 15 8 NW - 10 -
18.06.2019 05:00:00 15,6 14,8 13 7 NNW 1014,8 10 0,0
18.06.2019 04:00:00 16,0 15,0 11 6 NNW - 10 -
18.06.2019 03:00:00 17,0 16,0 11 6 NNW - 10 -
18.06.2019 02:00:00 18,3 16,2 11 6 NW 1015,5 10 -
18.06.2019 01:00:00 19,0 16,0 9 5 NW - 10 -
18.06.2019 00:00:00 20,0 15,0 13 7 N - 10 -
17.06.2019 23:00:00 20,9 15,2 11 6 NNE 1015,6 10 0,0
17.06.2019 22:00:00 22,0 16,0 4 2 - - 10 -
17.06.2019 21:00:00 22,0 16,0 5 3 E - 10 -
17.06.2019 20:00:00 22,9 15,1 15 8 E 1014,4 10 -
17.06.2019 19:00:00 - - - - - - - -
17.06.2019 18:00:00 24,0 15,0 16 9 S - 10 -
17.06.2019 17:00:00 25,7 15,1 15 8 SE 1013,6 10 0,0
17.06.2019 16:00:00 27,0 15,0 21 11 SE - 10 -
17.06.2019 15:00:00 27,0 14,0 21 11 SSE - 10 -
17.06.2019 14:00:00 27,0 15,1 8 4 S 1015,2 10 -
17.06.2019 13:00:00 29,0 10,0 13 7 W - 10 -
17.06.2019 12:00:00 27,0 13,0 15 8 NW - 10 -
17.06.2019 11:00:00 25,8 13,5 16 9 NW 1015,8 10 0,0
17.06.2019 10:00:00 23,0 15,0 15 8 NNW - 10 -
17.06.2019 09:00:00 21,0 16,0 16 9 NNW - 10 -
17.06.2019 08:00:00 19,1 16,9 13 7 NW 1015,8 20 -
17.06.2019 07:00:00 17,0 16,0 11 6 NW - 10 -
17.06.2019 06:00:00 17,0 16,0 11 6 NNW - 10 -
17.06.2019 05:00:00 17,1 15,8 13 7 NNW 1015,0 10 0,0
17.06.2019 04:00:00 18,0 16,0 16 9 NW - 10 -
17.06.2019 03:00:00 19,0 16,0 16 9 NNW - 10 -
17.06.2019 02:00:00 19,1 16,0 16 9 NNW 1015,1 10 -
17.06.2019 01:00:00 20,0 15,0 15 8 NNW - 10 -
17.06.2019 00:00:00 20,0 15,0 15 8 NNW - 10 -
16.06.2019 23:00:00 20,5 14,7 13 7 N 1015,9 10 0,0
16.06.2019 22:00:00 22,0 13,0 9 5 NNW - 10 -
16.06.2019 21:00:00 23,0 14,0 8 4 NW - 10 -
16.06.2019 20:00:00 24,3 16,8 5 3 SSE 1015,4 10 -
16.06.2019 19:00:00 25,0 17,0 13 7 SE - 10 -
16.06.2019 18:00:00 26,0 17,0 15 8 SSE - 10 -
16.06.2019 17:00:00 25,7 16,9 16 9 SSE 1015,6 10 0,0
16.06.2019 16:00:00 26,0 18,0 22 12 SE - 10 -
16.06.2019 15:00:00 25,0 20,0 24 13 SE - 10 -
16.06.2019 14:00:00 28,0 18,5 11 6 S 1015,8 10 -
16.06.2019 13:00:00 30,0 13,0 15 8 NW - 10 -
16.06.2019 12:00:00 28,0 15,0 18 10 NW - 10 -
16.06.2019 11:00:00 26,2 15,2 22 12 NNW 1016,9 10 0,0
16.06.2019 10:00:00 24,0 17,0 21 11 NNW - 10 -
16.06.2019 09:00:00 22,0 17,0 28 15 NNW - 10 -
16.06.2019 08:00:00 20,5 16,7 18 10 N 1017,1 10 -
16.06.2019 07:00:00 19,0 17,0 22 12 NNW - 10 -
16.06.2019 06:00:00 19,0 17,0 16 9 NNW - 10 -
16.06.2019 05:00:00 19,2 17,5 18 10 N 1016,8 10 0,0
16.06.2019 04:00:00 19,0 18,0 18 10 NNW - 10 -
16.06.2019 03:00:00 19,0 18,0 15 8 NNW - 10 -
16.06.2019 02:00:00 19,6 17,4 13 7 NNW 1017,6 10 -
16.06.2019 01:00:00 21,0 17,0 13 7 N - 10 -
16.06.2019 00:00:00 21,0 17,0 8 4 N - 10 -
15.06.2019 23:00:00 22,0 17,2 9 5 ESE 1017,6 10 0,0
15.06.2019 22:00:00 23,0 18,0 11 6 ESE - 10 -
15.06.2019 21:00:00 23,0 18,0 16 9 ESE - 10 -
15.06.2019 20:00:00 23,6 18,2 13 7 SE 1016,6 10 -
15.06.2019 19:00:00 25,0 18,0 13 7 SSE - 10 -
15.06.2019 18:00:00 25,0 18,0 15 8 SSE - 10 -
15.06.2019 17:00:00 25,9 18,5 16 9 SE 1016,7 10 0,0
15.06.2019 16:00:00 27,0 18,0 16 9 SSE - 10 -
15.06.2019 15:00:00 26,0 19,0 16 9 SSE - 10 -
15.06.2019 14:00:00 26,0 18,3 15 8 S 1016,9 10 -
15.06.2019 13:00:00 26,0 19,0 15 8 S - 10 -
15.06.2019 12:00:00 27,0 18,0 11 6 WSW - 10 -
15.06.2019 11:00:00 25,5 18,1 15 8 WNW 1017,0 10 0,0
15.06.2019 10:00:00 24,0 17,0 16 9 NW - 10 -
15.06.2019 09:00:00 22,0 18,0 21 11 NNW - 10 -
15.06.2019 08:00:00 21,3 17,2 18 10 NNW 1016,7 10 -
15.06.2019 07:00:00 19,0 17,0 16 9 NNW - 10 -
15.06.2019 06:00:00 19,0 17,0 16 9 NW - 10 -
15.06.2019 05:00:00 18,3 16,4 21 11 NNW 1016,1 10 0,0
15.06.2019 04:00:00 19,0 17,0 21 11 NW - 10 -
15.06.2019 03:00:00 19,0 17,0 21 11 NNW - 10 -
15.06.2019 02:00:00 19,4 17,1 21 11 NW 1016,8 10 -
15.06.2019 01:00:00 21,0 17,0 21 11 NW - 10 -
15.06.2019 00:00:00 21,0 17,0 28 15 NW - 10 -
14.06.2019 23:00:00 22,1 16,8 22 12 NW 1016,6 10 0,0
14.06.2019 22:00:00 23,0 17,0 21 11 NW - 10 -
14.06.2019 21:00:00 24,0 18,0 15 8 NW - 10 -
14.06.2019 20:00:00 25,3 19,2 2 1 - 1014,3 10 -
14.06.2019 19:00:00 26,0 19,0 9 5 SSE - 10 -
14.06.2019 18:00:00 27,0 19,0 15 8 S - 10 -
14.06.2019 17:00:00 26,9 18,8 11 6 SE 1013,4 10 0,0
14.06.2019 16:00:00 28,0 18,0 16 9 S - 10 -
14.06.2019 15:00:00 27,0 18,0 16 9 SSE - 10 -
14.06.2019 14:00:00 25,0 18,0 26 14 SE 1012,5 10 -
14.06.2019 13:00:00 26,0 18,0 24 13 SE - 10 -
14.06.2019 12:00:00 27,0 18,0 16 9 S - 10 -
14.06.2019 11:00:00 27,8 17,2 18 10 S 1013,1 10 0,0
14.06.2019 10:00:00 26,0 17,0 18 10 S - 10 -
14.06.2019 09:00:00 26,0 17,0 16 9 S - 10 -
14.06.2019 08:00:00 24,5 17,1 18 10 S 1012,9 10 -
14.06.2019 07:00:00 24,0 17,0 18 10 S - 10 -
14.06.2019 06:00:00 24,0 15,0 21 11 S - 10 -
14.06.2019 05:00:00 24,1 15,3 15 8 S 1012,0 10 0,0
14.06.2019 04:00:00 24,0 16,0 15 8 SSW - 10 -
14.06.2019 03:00:00 23,0 16,0 9 5 SSE - 10 -
14.06.2019 02:00:00 23,9 14,7 15 8 S 1013,8 10 -
14.06.2019 01:00:00 24,0 16,0 15 8 S - 10 -
14.06.2019 00:00:00 24,0 16,0 15 8 S - 10 -
13.06.2019 23:00:00 23,1 16,4 18 10 S 1014,3 10 0,0
13.06.2019 22:00:00 24,0 15,0 16 9 S - 10 -
13.06.2019 21:00:00 24,0 15,0 21 11 S - 10 -
13.06.2019 20:00:00 24,9 15,1 24 13 S 1013,4 10 -
13.06.2019 19:00:00 26,0 15,0 22 12 S - 10 -
13.06.2019 18:00:00 26,0 16,0 22 12 S - 10 -
13.06.2019 17:00:00 25,6 16,7 24 13 S 1013,9 10 0,0
13.06.2019 16:00:00 26,0 16,0 26 14 S - 10 -
13.06.2019 15:00:00 26,0 17,0 28 15 S - 10 -
13.06.2019 14:00:00 24,9 17,7 24 13 S 1015,3 10 -
13.06.2019 13:00:00 24,0 17,0 21 11 S - 10 -
13.06.2019 12:00:00 24,0 18,0 21 11 S - 10 -
13.06.2019 11:00:00 23,7 18,5 16 9 S 1015,7 10 0,0
13.06.2019 10:00:00 24,0 16,0 4 2 - - 10 -
13.06.2019 09:00:00 21,0 16,0 5 3 WNW - 10 -
13.06.2019 08:00:00 18,4 14,8 4 2 W 1015,5 10 -
13.06.2019 07:00:00 15,0 13,0 8 4 NNW - 10 -
13.06.2019 06:00:00 16,0 14,0 9 5 WNW - 10 -
13.06.2019 05:00:00 15,8 13,7 5 3 NNW 1014,0 15 0,0
13.06.2019 04:00:00 16,0 14,0 5 3 NNW - 10 -
13.06.2019 03:00:00 17,0 14,0 9 5 N - 10 -
13.06.2019 02:00:00 18,0 14,2 8 4 NNW 1015,4 10 -
13.06.2019 01:00:00 18,0 15,0 9 5 NW - 10 -
13.06.2019 00:00:00 19,0 14,0 9 5 NNW - 10 -

tt = temperature
td = dewpoint
ff = wind speed
dd = wind direction
ppp = reduced air pressure
vv = visibility
rr = precipitation

Next stations